GPS 2-04 Rocket1 - Orbit

View from above orbital plane
View from above orbital plane
View from above satellite
View from above satellite

Ground track
Ground track

The orbit data is extracted from the following two-line orbital elements,

1 20303U 89085B   13140.63950008  .00006577  00000-0  36125-3 0  5258
2 20303 035.6342 217.1607 0157567 141.8538 009.9146 15.03515586274672
Epoch (UTC): 20 May 2013 15:20:52
Eccentricity: 0.0157567
inclination: 35.6342°
perigee height: 447 km
apogee height: 665 km
right ascension of ascending node: 217.1607°
argument of perigee: 141.8538°
revolutions per day: 15.03515586
mean anomaly at epoch: 9.9146°
orbit number at epoch: 27467

The dashed part of the orbit path shows where the satellite is in the earth's shadow,  

Developed and maintained by Chris Peat, Heavens-Above GmbH. Please read the updated FAQ before sending e-mail. Imprint. DLR